This is the latest recevied weather packets stored in our database for station/object N4DWK. If no packets are shown the sender has not sent any weather packets the latest 10 day(s).
| Time | Temp. | Humidity | Pressure | Rain* | Wind** | Luminosity | Snow |
|---|---|---|---|---|---|---|---|
| 1778014803 | 28.89° C | 35% | 1011.3 hPa | 0 mm | - | 195 W/m² | - |
| 1778014504 | 28.89° C | 34% | 1011.3 hPa | 0 mm | - | 309 W/m² | - |
| 1778014204 | 28.89° C | 34% | 1011.4 hPa | 0 mm | - | 311 W/m² | - |
| 1778013904 | 28.33° C | 35% | 1011.3 hPa | 0 mm | - | 338 W/m² | - |
| 1778013604 | 28.33° C | 35% | 1011.3 hPa | 0 mm | - | 294 W/m² | - |
| 1778013304 | 28.33° C | 34% | 1011.3 hPa | 0 mm | - | 202 W/m² | - |
| 1778013004 | 29.44° C | 33% | 1011.3 hPa | 0 mm | - | 125 W/m² | - |
| 1778012704 | 30° C | 33% | 1011.3 hPa | 0 mm | - | 371 W/m² | - |
| 1778012404 | 29.44° C | 34% | 1011.3 hPa | 0 mm | - | 427 W/m² | - |
| 1778012105 | 29.44° C | 34% | 1011.4 hPa | 0 mm | - | 469 W/m² | - |
| 1778011804 | 29.44° C | 34% | 1011.5 hPa | 0 mm | - | 461 W/m² | - |
| 1778011504 | 29.44° C | 36% | 1011.4 hPa | 0 mm | - | 427 W/m² | - |
| 1778011203 | 29.44° C | 35% | 1011.5 hPa | 0 mm | - | 452 W/m² | - |
| 1778010904 | 30° C | 35% | 1011.5 hPa | 0 mm | - | 506 W/m² | - |
| 1778010604 | 30° C | 35% | 1011.6 hPa | 0 mm | - | 494 W/m² | - |
| 1778010304 | 29.44° C | 36% | 1011.6 hPa | 0 mm | - | 510 W/m² | - |
| 1778010004 | 28.89° C | 36% | 1011.7 hPa | 0 mm | - | 533 W/m² | - |
| 1778009703 | 28.89° C | 35% | 1011.8 hPa | 0 mm | - | 520 W/m² | - |
| 1778009403 | 29.44° C | 35% | 1011.9 hPa | 0 mm | - | 538 W/m² | - |
| 1778009104 | 28.89° C | 34% | 1011.9 hPa | 0 mm | - | 543 W/m² | - |
| 1778008804 | 29.44° C | 35% | 1012 hPa | 0 mm | - | 566 W/m² | - |
| 1778008504 | 29.44° C | 35% | 1012.1 hPa | 0 mm | - | 578 W/m² | - |
| 1778008204 | 29.44° C | 35% | 1012.1 hPa | 0 mm | - | 580 W/m² | - |
| 1778007903 | 29.44° C | 35% | 1012.2 hPa | 0 mm | - | 577 W/m² | - |
| 1778007604 | 30° C | 35% | 1012.3 hPa | 0 mm | - | 589 W/m² | - |
* Rain latest hour (hover to see other rain measurements)
** Current wind speed in m/s (hover to see current wind gust speed)